Year,Month,Day,Hour,Minute,Value (Times are PST for temperature in C)
2020,10,20,08,12,7.60
2020,10,20,08,13,7.60
2020,10,20,08,14,7.60
2020,10,20,08,15,7.60
2020,10,20,08,16,7.60
2020,10,20,08,17,7.60
2020,10,20,08,18,7.60
2020,10,20,08,19,7.60
2020,10,20,08,20,7.60
2020,10,20,08,21,7.50
2020,10,20,08,22,7.50
2020,10,20,08,23,7.50
2020,10,20,08,24,7.50
2020,10,20,08,25,7.40
2020,10,20,08,26,7.40
2020,10,20,08,27,7.40
2020,10,20,08,28,7.40
2020,10,20,08,29,7.40
2020,10,20,08,30,7.40
2020,10,20,08,31,7.40
2020,10,20,08,32,7.30
2020,10,20,08,33,7.30
2020,10,20,08,34,7.30
2020,10,20,08,35,7.30
2020,10,20,08,36,7.30
2020,10,20,08,37,7.30
2020,10,20,08,38,7.30
2020,10,20,08,39,7.40
2020,10,20,08,40,7.40
2020,10,20,08,41,7.40
2020,10,20,08,42,7.40
2020,10,20,08,43,7.40
2020,10,20,08,44,7.40
2020,10,20,08,45,7.50
2020,10,20,08,46,7.50
2020,10,20,08,47,7.50
2020,10,20,08,48,7.50
2020,10,20,08,49,7.60
2020,10,20,08,50,7.60
2020,10,20,08,51,7.60
2020,10,20,08,52,7.60
2020,10,20,08,53,7.70
2020,10,20,08,54,7.70
2020,10,20,08,55,7.70
2020,10,20,08,56,7.80
2020,10,20,08,57,7.80
2020,10,20,08,58,7.80
2020,10,20,08,59,7.80
2020,10,20,09,00,7.80
2020,10,20,09,01,7.80
2020,10,20,09,02,7.80
2020,10,20,09,03,7.80
2020,10,20,09,04,7.90
2020,10,20,09,05,7.90
2020,10,20,09,06,7.90
2020,10,20,09,07,8.00
2020,10,20,09,08,8.00
2020,10,20,09,09,8.10
2020,10,20,09,10,8.20
2020,10,20,09,11,8.30
2020,10,20,09,12,8.40
2020,10,20,09,13,8.40
2020,10,20,09,14,8.40
2020,10,20,09,15,8.50
2020,10,20,09,16,8.50
2020,10,20,09,17,8.60
2020,10,20,09,18,8.60
2020,10,20,09,19,8.50
2020,10,20,09,20,8.50
2020,10,20,09,21,8.50
2020,10,20,09,22,8.50
2020,10,20,09,23,8.50
2020,10,20,09,24,8.50
2020,10,20,09,25,8.60
2020,10,20,09,26,8.60
2020,10,20,09,27,8.60
2020,10,20,09,28,8.60
2020,10,20,09,29,8.70
2020,10,20,09,30,8.70
2020,10,20,09,31,8.70
2020,10,20,09,32,8.70
2020,10,20,09,33,8.80
2020,10,20,09,34,8.80
2020,10,20,09,35,8.90
2020,10,20,09,36,8.90
2020,10,20,09,37,8.90
2020,10,20,09,38,8.90
2020,10,20,09,39,9.00
2020,10,20,09,40,9.00
2020,10,20,09,41,9.20
2020,10,20,09,42,9.20
2020,10,20,09,43,9.20
2020,10,20,09,44,9.30
2020,10,20,09,45,9.40
2020,10,20,09,46,9.40
2020,10,20,09,47,9.40
2020,10,20,09,48,9.40
2020,10,20,09,49,9.50
2020,10,20,09,50,9.50
2020,10,20,09,51,9.60
2020,10,20,09,52,9.60
2020,10,20,09,53,9.70
2020,10,20,09,54,9.70
2020,10,20,09,55,9.70
2020,10,20,09,56,9.70
2020,10,20,09,57,9.70
2020,10,20,09,58,9.70
2020,10,20,09,59,9.70
2020,10,20,10,00,9.70
2020,10,20,10,01,9.70
2020,10,20,10,02,9.60
2020,10,20,10,03,9.60
2020,10,20,10,04,9.70
2020,10,20,10,05,9.70
2020,10,20,10,06,9.80
2020,10,20,10,07,9.80
2020,10,20,10,08,9.80
2020,10,20,10,09,9.80
2020,10,20,10,10,9.90
2020,10,20,10,11,9.90
2020,10,20,10,12,9.90
2020,10,20,10,13,9.90
2020,10,20,10,14,10.00
2020,10,20,10,15,10.00
2020,10,20,10,16,9.90
2020,10,20,10,17,9.90
2020,10,20,10,18,9.90
2020,10,20,10,19,10.00
2020,10,20,10,20,10.00
2020,10,20,10,21,10.00
2020,10,20,10,22,10.10
2020,10,20,10,23,10.10
2020,10,20,10,24,10.10
2020,10,20,10,25,10.10
2020,10,20,10,26,10.10
2020,10,20,10,27,10.10
2020,10,20,10,28,10.10
2020,10,20,10,29,10.20
2020,10,20,10,30,10.20
2020,10,20,10,31,10.20
2020,10,20,10,32,10.20
2020,10,20,10,33,10.40
2020,10,20,10,34,10.50
2020,10,20,10,35,10.50
2020,10,20,10,36,10.60
2020,10,20,10,37,10.60
2020,10,20,10,38,10.60
2020,10,20,10,39,10.60
2020,10,20,10,40,10.60
2020,10,20,10,41,10.50
2020,10,20,10,42,10.40
2020,10,20,10,43,10.40
2020,10,20,10,44,10.40
2020,10,20,10,45,10.40
2020,10,20,10,46,10.40
2020,10,20,10,47,10.40
2020,10,20,10,48,10.40
2020,10,20,10,49,10.50
2020,10,20,10,50,10.50
2020,10,20,10,51,10.50
2020,10,20,10,52,10.50
2020,10,20,10,53,10.50
2020,10,20,10,54,10.50
2020,10,20,10,55,10.50
2020,10,20,10,56,10.40
2020,10,20,10,57,10.50
2020,10,20,10,58,10.60
2020,10,20,10,59,10.60
2020,10,20,11,00,10.60
2020,10,20,11,01,10.60
2020,10,20,11,02,10.60
2020,10,20,11,03,10.60
2020,10,20,11,04,10.60
2020,10,20,11,05,10.60
2020,10,20,11,06,10.60
2020,10,20,11,07,10.60
2020,10,20,11,08,10.60
2020,10,20,20,12,10.80
2020,10,20,20,13,10.80
2020,10,20,20,14,10.80
2020,10,20,20,15,10.80
2020,10,20,20,16,10.70
2020,10,20,20,17,10.70
2020,10,20,20,18,10.70
2020,10,20,20,19,10.70
2020,10,20,20,20,10.70
2020,10,20,20,21,10.70
2020,10,20,20,22,10.70
2020,10,20,20,23,10.60
2020,10,20,20,24,10.60
2020,10,20,20,25,10.60
2020,10,20,20,26,10.60
2020,10,20,20,27,10.60
2020,10,20,20,28,10.60
2020,10,20,20,29,10.60
2020,10,20,20,30,10.60
2020,10,20,20,31,10.60
2020,10,20,20,32,10.60
2020,10,20,20,33,10.50
2020,10,20,20,34,10.50
2020,10,20,20,35,10.50
2020,10,20,20,36,10.40
2020,10,20,20,37,10.40
2020,10,20,20,38,10.40
2020,10,20,20,39,10.40
2020,10,20,20,40,10.40
2020,10,20,20,41,10.40
2020,10,20,20,42,10.40
2020,10,20,20,43,10.40
2020,10,20,20,44,10.40
2020,10,20,20,45,10.40
2020,10,20,20,46,10.40
2020,10,20,20,47,10.40
2020,10,20,20,48,10.40
2020,10,20,20,49,10.40
2020,10,20,20,50,10.40
2020,10,20,20,51,10.40
2020,10,20,20,52,10.40
2020,10,20,20,53,10.40
2020,10,20,20,54,10.40
2020,10,20,20,55,10.40
2020,10,20,20,56,10.40
2020,10,20,20,57,10.40
2020,10,20,20,58,10.40
2020,10,20,20,59,10.30
2020,10,20,21,00,10.30
2020,10,20,21,01,10.30
2020,10,20,21,02,10.30
2020,10,20,21,03,10.30
2020,10,20,21,04,10.30
2020,10,20,21,05,10.30
2020,10,20,21,06,10.30
2020,10,20,21,07,10.30
2020,10,20,21,08,10.30
2020,10,20,21,09,10.30
2020,10,20,21,10,10.30
2020,10,20,21,11,10.30
2020,10,20,21,12,10.30
2020,10,20,21,13,10.30
2020,10,20,21,14,10.30
2020,10,20,21,15,10.30
2020,10,20,21,16,10.20
2020,10,20,21,17,10.20
2020,10,20,21,18,10.20
2020,10,20,21,19,10.20
2020,10,20,21,20,10.20
2020,10,20,21,21,10.20
2020,10,20,21,22,10.20
2020,10,20,21,23,10.20
2020,10,20,21,24,10.20
2020,10,20,21,25,10.20
2020,10,20,21,26,10.10
2020,10,20,21,27,10.10
2020,10,20,21,28,10.10
2020,10,20,21,29,10.10
2020,10,20,21,30,10.10
2020,10,20,21,31,10.10
2020,10,20,21,32,10.10
2020,10,20,21,33,10.10
2020,10,20,21,34,10.10
2020,10,20,21,35,10.10
2020,10,20,21,36,10.10
2020,10,20,21,37,10.10
2020,10,20,21,38,10.10
2020,10,20,21,39,10.10
2020,10,20,21,40,10.10
2020,10,20,21,41,10.10
2020,10,20,21,42,10.10
2020,10,20,21,43,10.10
2020,10,20,21,44,10.10
2020,10,20,21,45,10.10
2020,10,20,21,46,10.10
2020,10,20,21,47,10.00
2020,10,20,21,48,10.00
2020,10,20,21,49,10.00
2020,10,20,21,50,10.00
2020,10,20,21,51,10.00
2020,10,20,21,52,10.00
2020,10,20,21,53,9.90
2020,10,20,21,54,9.90
2020,10,20,21,55,9.90
2020,10,20,21,56,9.90
2020,10,20,21,57,9.90
2020,10,20,21,58,9.90
2020,10,20,21,59,9.90
2020,10,20,22,00,9.90
2020,10,20,22,01,9.90
2020,10,20,22,02,9.90
2020,10,20,22,03,9.90
2020,10,20,22,04,9.90
2020,10,20,22,05,9.80
2020,10,20,22,06,9.80
2020,10,20,22,07,9.80
2020,10,20,22,08,9.80
2020,10,20,22,09,9.80
2020,10,20,22,10,9.80
2020,10,20,22,11,9.80
2020,10,20,22,12,9.80
2020,10,20,22,13,9.80
2020,10,20,22,14,9.80
2020,10,20,22,15,9.80
2020,10,20,22,16,9.80
2020,10,20,22,17,9.80
2020,10,20,22,18,9.80
2020,10,20,22,19,9.80
2020,10,20,22,20,9.80
2020,10,20,22,21,9.80
2020,10,20,22,22,9.80
2020,10,20,22,23,9.90
2020,10,20,22,24,9.90
2020,10,20,22,25,9.90
2020,10,20,22,26,10.00
2020,10,20,22,27,10.00
2020,10,20,22,28,10.00
2020,10,20,22,29,10.10
2020,10,20,22,30,10.10
2020,10,20,22,31,10.10
2020,10,20,22,32,10.10
2020,10,20,22,33,10.10
2020,10,20,22,34,10.10
2020,10,20,22,35,10.20
2020,10,20,22,36,10.20
2020,10,20,22,37,10.20
2020,10,20,22,38,10.20
2020,10,20,22,39,10.10
2020,10,20,22,40,10.10
2020,10,20,22,41,10.10
2020,10,20,22,42,10.10
2020,10,20,22,43,10.00
2020,10,20,22,44,10.00
2020,10,20,22,45,10.00
2020,10,20,22,46,10.00
2020,10,20,22,47,10.00
2020,10,20,22,48,10.00
2020,10,20,22,49,10.00
2020,10,20,22,50,9.90
2020,10,20,22,51,9.90
2020,10,20,22,52,9.90
2020,10,20,22,53,9.90
2020,10,20,22,54,9.90
2020,10,20,22,55,9.90
2020,10,20,22,56,9.90
2020,10,20,22,57,9.90
2020,10,20,22,58,9.90
2020,10,20,22,59,9.90
2020,10,20,23,00,9.90
2020,10,20,23,01,9.90
2020,10,20,23,02,9.80
2020,10,20,23,03,9.80
2020,10,20,23,04,9.80
2020,10,20,23,05,9.80
2020,10,20,23,06,9.80
2020,10,20,23,07,9.80
2020,10,20,23,08,9.80
2020,10,20,23,09,9.80
2020,10,20,23,10,9.70
2020,10,20,23,11,9.70
2020,10,20,23,12,9.60
2020,10,20,23,13,9.60
2020,10,20,23,14,9.60
2020,10,20,23,15,9.60
2020,10,20,23,16,9.60
2020,10,20,23,17,9.60
2020,10,20,23,18,9.60
2020,10,20,23,19,9.50
2020,10,20,23,20,9.40
2020,10,20,23,21,9.40
2020,10,20,23,22,9.40
2020,10,20,23,23,9.50
2020,10,20,23,24,9.50
2020,10,20,23,25,9.60
2020,10,20,23,26,9.70
2020,10,20,23,27,9.70
2020,10,20,23,28,9.70
2020,10,20,23,29,10.00
2020,10,20,23,30,10.00
2020,10,20,23,31,10.10
2020,10,20,23,32,10.10
2020,10,20,23,33,10.20
2020,10,20,23,34,10.20
2020,10,20,23,35,10.20
2020,10,20,23,36,10.20
2020,10,20,23,37,10.10
2020,10,20,23,38,10.10
2020,10,20,23,39,10.10
2020,10,20,23,40,10.00
2020,10,20,23,41,10.00
2020,10,20,23,42,9.90
2020,10,20,23,43,9.90
2020,10,20,23,44,9.90
2020,10,20,23,45,9.90
2020,10,20,23,46,9.80
2020,10,20,23,47,9.80
2020,10,20,23,48,9.80
2020,10,20,23,49,9.80
2020,10,20,23,50,9.80
2020,10,20,23,51,9.80
2020,10,20,23,52,9.80
2020,10,20,23,53,9.80
2020,10,20,23,54,9.70
2020,10,20,23,55,9.70
2020,10,20,23,56,9.70
2020,10,20,23,57,9.70
2020,10,20,23,58,9.70
2020,10,20,23,59,9.70
